N67920 KSAN-KSNA

Flight info

Callsign N67920
Flight time 0h 28m
Altitude 6000
Route OCN V23 SLI
Aircraft SR22/L-SDGRY/S

Departure

Time 2026-05-05 05:36
Airport San Diego International Airport (KSAN)

Arrival

Time 2026-05-05 06:04
Airport John Wayne Orange County International Airport (KSNA)
Time Latitude Longitude Altitude Speed Heading
2026-05-05 05:16 32.73338 -117.17833 21 ft 0 kts 17°
2026-05-05 05:19 32.73336 -117.17834 21 ft 2 kts 73°
2026-05-05 05:20 32.73338 -117.17836 21 ft 0 kts 194°
2026-05-05 05:25 32.73337 -117.17838 21 ft 1 kts 289°
2026-05-05 05:25 32.73342 -117.17847 21 ft 3 kts 296°
2026-05-05 05:26 32.73344 -117.17851 21 ft 0 kts 313°
2026-05-05 05:26 32.73348 -117.17859 21 ft 1 kts 303°
2026-05-05 05:26 32.73351 -117.17866 21 ft 0 kts 290°
2026-05-05 05:27 32.73351 -117.17867 21 ft 0 kts 291°
2026-05-05 05:27 32.73348 -117.17941 19 ft 9 kts 232°
2026-05-05 05:28 32.73289 -117.17974 18 ft 9 kts 191°
2026-05-05 05:28 32.73231 -117.17965 18 ft 8 kts 130°
2026-05-05 05:28 32.73211 -117.17900 18 ft 9 kts 105°
2026-05-05 05:28 32.73196 -117.17832 18 ft 6 kts 102°
2026-05-05 05:29 32.73182 -117.17779 19 ft 7 kts 107°
2026-05-05 05:29 32.73168 -117.17722 20 ft 7 kts 105°
2026-05-05 05:29 32.73154 -117.17665 21 ft 6 kts 106°
2026-05-05 05:29 32.73144 -117.17624 21 ft 3 kts 109°
2026-05-05 05:30 32.73136 -117.17604 21 ft 2 kts 119°
2026-05-05 05:30 32.73129 -117.17589 22 ft 0 kts 125°
2026-05-05 05:30 32.73118 -117.17575 22 ft 8 kts 137°
2026-05-05 05:30 32.73108 -117.17567 22 ft 0 kts 154°
2026-05-05 05:31 32.73103 -117.17562 22 ft 0 kts 121°
2026-05-05 05:33 32.73101 -117.17561 22 ft 0 kts 129°
2026-05-05 05:33 32.73100 -117.17559 22 ft 0 kts 137°
2026-05-05 05:34 32.73095 -117.17555 22 ft 4 kts 147°
2026-05-05 05:34 32.73031 -117.17578 21 ft 13 kts 259°
2026-05-05 05:34 32.73031 -117.17619 21 ft 0 kts 274°
2026-05-05 05:35 32.73031 -117.17620 21 ft 0 kts 282°
2026-05-05 05:35 32.73032 -117.17627 21 ft 11 kts 281°
2026-05-05 05:35 32.73113 -117.18014 16 ft 81 kts 287°
2026-05-05 05:35 32.73327 -117.18793 145 ft 108 kts 291°
2026-05-05 05:36 32.73799 -117.19602 273 ft 129 kts 316°
2026-05-05 05:36 32.74539 -117.20320 383 ft 144 kts 321°
2026-05-05 05:36 32.75354 -117.21074 566 ft 148 kts 321°
2026-05-05 05:36 32.76090 -117.21747 1184 ft 121 kts 321°
2026-05-05 05:37 32.76700 -117.22291 1682 ft 105 kts 321°
2026-05-05 05:37 32.77276 -117.22790 2036 ft 102 kts 321°
2026-05-05 05:37 32.77844 -117.23283 2349 ft 102 kts 320°
2026-05-05 05:37 32.78422 -117.23786 2669 ft 102 kts 320°
2026-05-05 05:38 32.79004 -117.24281 2933 ft 107 kts 321°
2026-05-05 05:38 32.79664 -117.24862 2975 ft 130 kts 321°
2026-05-05 05:38 32.80449 -117.25562 2972 ft 149 kts 321°
2026-05-05 05:38 32.81306 -117.26334 2963 ft 160 kts 321°
2026-05-05 05:39 32.82224 -117.27168 2958 ft 168 kts 321°
2026-05-05 05:39 32.83163 -117.28023 2954 ft 172 kts 321°
2026-05-05 05:39 32.84131 -117.28906 2952 ft 177 kts 321°
2026-05-05 05:39 32.85115 -117.29814 2952 ft 181 kts 321°
2026-05-05 05:40 32.86120 -117.30741 2949 ft 184 kts 321°
2026-05-05 05:40 32.87135 -117.31675 2951 ft 185 kts 321°
2026-05-05 05:40 32.88156 -117.32616 2950 ft 186 kts 321°
2026-05-05 05:40 32.89194 -117.33569 2949 ft 186 kts 321°
2026-05-05 05:41 32.90210 -117.34512 2946 ft 186 kts 321°
2026-05-05 05:41 32.91248 -117.35470 2947 ft 186 kts 321°
2026-05-05 05:41 32.92275 -117.36415 2949 ft 186 kts 321°
2026-05-05 05:41 32.93300 -117.37365 2947 ft 187 kts 321°
2026-05-05 05:42 32.94327 -117.38310 2945 ft 186 kts 321°
2026-05-05 05:42 32.95352 -117.39248 2946 ft 186 kts 321°
2026-05-05 05:42 32.96382 -117.40191 2945 ft 186 kts 321°
2026-05-05 05:42 32.97411 -117.41130 2946 ft 186 kts 321°
2026-05-05 05:43 32.98432 -117.42070 2944 ft 187 kts 321°
2026-05-05 05:43 32.99482 -117.43021 2944 ft 187 kts 321°
2026-05-05 05:43 33.00503 -117.43954 2943 ft 187 kts 321°
2026-05-05 05:43 33.01531 -117.44904 3046 ft 182 kts 320°
2026-05-05 05:44 33.02385 -117.45984 3164 ft 178 kts 310°
2026-05-05 05:44 33.03184 -117.47099 3284 ft 175 kts 309°
2026-05-05 05:44 33.03928 -117.48146 3400 ft 173 kts 309°
2026-05-05 05:44 33.04608 -117.49316 3518 ft 171 kts 301°
2026-05-05 05:45 33.05221 -117.50526 3642 ft 170 kts 300°
2026-05-05 05:45 33.05827 -117.51724 3762 ft 169 kts 300°
2026-05-05 05:45 33.06442 -117.52934 3882 ft 169 kts 300°
2026-05-05 05:45 33.07048 -117.54128 4003 ft 168 kts 300°
2026-05-05 05:46 33.07659 -117.55321 4123 ft 168 kts 300°
2026-05-05 05:46 33.08267 -117.56506 4245 ft 169 kts 301°
2026-05-05 05:46 33.08886 -117.57699 4370 ft 168 kts 300°
2026-05-05 05:46 33.09503 -117.58886 4490 ft 169 kts 300°
2026-05-05 05:47 33.10123 -117.60075 4614 ft 169 kts 300°
2026-05-05 05:47 33.10751 -117.61268 4738 ft 168 kts 301°
2026-05-05 05:47 33.11378 -117.62445 4859 ft 168 kts 300°
2026-05-05 05:47 33.11996 -117.63614 4978 ft 168 kts 301°
2026-05-05 05:48 33.12565 -117.64696 5096 ft 168 kts 300°
2026-05-05 05:48 33.13187 -117.65867 5220 ft 167 kts 300°
2026-05-05 05:48 33.13822 -117.67042 5351 ft 167 kts 300°
2026-05-05 05:48 33.14455 -117.68208 5474 ft 167 kts 300°
2026-05-05 05:49 33.15084 -117.69364 5598 ft 167 kts 300°
2026-05-05 05:49 33.15722 -117.70517 5721 ft 167 kts 301°
2026-05-05 05:49 33.16370 -117.71687 5836 ft 167 kts 300°
2026-05-05 05:49 33.17009 -117.72842 5953 ft 167 kts 298°
2026-05-05 05:50 33.17646 -117.73998 6070 ft 166 kts 300°
2026-05-05 05:50 33.18280 -117.75156 6198 ft 166 kts 301°
2026-05-05 05:50 33.18908 -117.76305 6315 ft 166 kts 300°
2026-05-05 05:50 33.19544 -117.77451 6441 ft 165 kts 300°
2026-05-05 05:51 33.20182 -117.78588 6550 ft 165 kts 300°
2026-05-05 05:51 33.20811 -117.79720 6670 ft 165 kts 300°
2026-05-05 05:51 33.21440 -117.80862 6804 ft 164 kts 300°
2026-05-05 05:51 33.22071 -117.82008 6922 ft 164 kts 300°
2026-05-05 05:52 33.22707 -117.83144 7048 ft 164 kts 300°
2026-05-05 05:52 33.23371 -117.84243 7176 ft 165 kts 308°
2026-05-05 05:52 33.24195 -117.85210 7301 ft 166 kts 312°
2026-05-05 05:52 33.25027 -117.86171 7434 ft 166 kts 312°
2026-05-05 05:53 33.25874 -117.87112 7571 ft 167 kts 320°
2026-05-05 05:53 33.26929 -117.87730 7698 ft 170 kts 332°
2026-05-05 05:53 33.28040 -117.88097 7954 ft 163 kts 343°
2026-05-05 05:53 33.29170 -117.88470 7931 ft 174 kts 346°
2026-05-05 05:54 33.30402 -117.88685 7933 ft 181 kts 347°
2026-05-05 05:54 33.31656 -117.88897 7935 ft 185 kts 347°
2026-05-05 05:54 33.32953 -117.89122 7926 ft 188 kts 348°
2026-05-05 05:54 33.34249 -117.89351 7929 ft 190 kts 349°
2026-05-05 05:55 33.35558 -117.89591 7929 ft 191 kts 348°
2026-05-05 05:55 33.36875 -117.89840 7927 ft 191 kts 346°
2026-05-05 05:55 33.38192 -117.90180 7927 ft 191 kts 344°
2026-05-05 05:55 33.39485 -117.90516 7927 ft 191 kts 344°
2026-05-05 05:56 33.40785 -117.90862 7927 ft 191 kts 342°
2026-05-05 05:56 33.42066 -117.91288 7934 ft 190 kts 340°
2026-05-05 05:56 33.43343 -117.91719 7931 ft 191 kts 340°
2026-05-05 05:56 33.44617 -117.92162 7927 ft 191 kts 340°
2026-05-05 05:57 33.45906 -117.92606 7933 ft 190 kts 340°
2026-05-05 05:57 33.47187 -117.93057 7935 ft 191 kts 340°
2026-05-05 05:57 33.48481 -117.93460 7845 ft 198 kts 348°
2026-05-05 05:57 33.49898 -117.93312 7530 ft 214 kts 10°
2026-05-05 05:58 33.51317 -117.92809 7469 ft 211 kts 15°
2026-05-05 05:58 33.52693 -117.92311 7556 ft 200 kts 14°
2026-05-05 05:58 33.53923 -117.91836 7599 ft 165 kts 16°
2026-05-05 05:58 33.54911 -117.91440 7601 ft 133 kts 16°
2026-05-05 05:59 33.55679 -117.91135 7580 ft 100 kts 13°
2026-05-05 05:59 33.56304 -117.90870 7352 ft 100 kts 27°
2026-05-05 05:59 33.56972 -117.90510 6970 ft 107 kts
2026-05-05 05:59 33.57688 -117.90307 6651 ft 108 kts
2026-05-05 06:00 33.58417 -117.90087 6339 ft 108 kts
2026-05-05 06:00 33.59130 -117.89854 6043 ft 106 kts 11°
2026-05-05 06:00 33.59838 -117.89613 5573 ft 121 kts 15°
2026-05-05 06:00 33.60740 -117.89243 4761 ft 151 kts 28°
2026-05-05 06:01 33.61751 -117.88739 3996 ft 162 kts 30°
2026-05-05 06:01 33.62720 -117.88104 3290 ft 158 kts 43°
2026-05-05 06:01 33.63679 -117.87470 2391 ft 165 kts 32°
2026-05-05 06:01 33.64679 -117.86955 1805 ft 151 kts 27°
2026-05-05 06:02 33.65616 -117.86535 1228 ft 141 kts 24°
2026-05-05 06:02 33.66447 -117.86176 886 ft 117 kts 24°
2026-05-05 06:02 33.67048 -117.85787 775 ft 88 kts 27°
2026-05-05 06:02 33.67671 -117.85397 749 ft 113 kts 24°
2026-05-05 06:03 33.68324 -117.84975 889 ft 94 kts 27°
2026-05-05 06:03 33.68856 -117.84644 742 ft 85 kts 10°
2026-05-05 06:03 33.69345 -117.84885 581 ft 80 kts 302°
2026-05-05 06:03 33.69407 -117.85508 471 ft 77 kts 244°
2026-05-05 06:04 33.69002 -117.85898 249 ft 74 kts 197°
2026-05-05 06:04 33.68535 -117.86101 163 ft 65 kts 206°
2026-05-05 06:04 33.68117 -117.86354 45 ft 67 kts 214°
2026-05-05 06:04 33.67773 -117.86579 44 ft 46 kts 206°
2026-05-05 06:05 33.67543 -117.86711 47 ft 23 kts 210°
2026-05-05 06:05 33.67472 -117.86754 48 ft 5 kts 173°
2026-05-05 06:05 33.67441 -117.86736 48 ft 5 kts 143°
2026-05-05 06:05 33.67387 -117.86681 47 ft 10 kts 164°
2026-05-05 06:06 33.67304 -117.86711 48 ft 15 kts 191°
2026-05-05 06:06 33.67241 -117.86684 49 ft 0 kts 210°